This demonstration page uses our WeatherBlox Daily Observations layout. Learn more.

Left ArrowRight Arrow

Hourly Observations for September 27, 2020

Temp ( °F °C ) Dew Point ( °F °C ) Humidity (%) Winds ( mph kmh ) Pressure ( in mb ) Visibility ( mi km ) Precip ( " mm )
12:54 am 00:54 Clear 63 17.2 46 7.8 54 54 N 5 7 29.76 1008 10 16.0934 0 0
1:54 am 01:54 Clear 60 15.6 46 7.8 60 60 N 5 7 29.77 1008 10 16.0934 0 0
2:54 am 02:54 Clear 63 17.2 47 8.3 56 56 WNW 3 6 29.78 1008 10 16.0934 0 0
3:54 am 03:54 Partly Cloudy 60 15.6 48 8.9 65 65 Calm 29.78 1008 10 16.0934 0 0
4:54 am 04:54 Clear 56 13.3 49 9.4 77 77 N 6 9 29.78 1008 10 16.0934 0 0
5:54 am 05:54 Mostly Cloudy 57 13.9 48 8.9 72 72 NNW 6 9 29.78 1009 10 16.0934 0 0
6:54 am 06:54 Cloudy with Nearby Thunderstorms 58 14.4 50 10 75 75 N 3 6 29.82 1010 10 16.0934 0 0
7:32 am 07:32 Cloudy with Thunderstorms 59 15 51 10.6 75 75 N 9 15 29.86 1011 9 14.48406 0.001 0.001
7:52 am 07:52 Cloudy with Nearby Thunderstorms 59 15 52 11 77 77 N 7 11 29.89 1012 8 12.87472 0.02 0.508
7:54 am 07:54 Cloudy with Nearby Thunderstorms 59 15 51 10.6 75 75 NNW 6 9 29.88 1012 6 9.65604 0.03 0.762
7:59 am 07:59 Cloudy with Heavy Thunderstorms 57 13.9 51 10.6 81 81 NE 5 7 29.88 1012 2.5 4.02335 0.01 0.254
8:10 am 08:10 Cloudy with Light Thunderstorms 57 13.9 52 11.1 83 83 ESE 5 7 29.88 1012 7 11.26538 0.08 2.032
8:49 am 08:49 Cloudy with Nearby Thunderstorms 57 14 52 11 82 82 Calm 29.9 1013 10 16.0934 0.09 2.286
8:54 am 08:54 Cloudy with Nearby Thunderstorms 59 15 51 10.6 75 75 Calm 29.88 1012 10 16.0934 0.09 2.286
9:21 am 09:21 Cloudy 58 14.4 53 11.7 84 84 SSW 3 6 29.91 1013 10 16.0934 0.001 0.001
9:54 am 09:54 Cloudy 58 14.4 54 12.2 87 87 S 6 9 29.93 1013 10 16.0934 0.001 0.001
10:54 am 10:54 Cloudy 59 15 52 11.1 78 78 W 5 7 29.94 1014 10 16.0934 0 0
11:54 am 11:54 Cloudy 62 16.7 47 8.3 58 58 NNW 14 22 29.94 1014 10 16.0934 0 0
12:54 pm 12:54 Cloudy with Light Rain 61 16.1 41 5 48 48 NNW 13 20 29.97 1015 10 16.0934 0.001 0.001
1:54 pm 13:54 Cloudy 58 14.4 45 7.2 62 62 SSW 3 6 29.95 1014 10 16.0934 0.001 0.001
2:54 pm 14:54 Cloudy 58 14.4 46 7.8 65 65 SSW 6 9 29.95 1014 10 16.0934 0 0
3:54 pm 15:54 Mostly Cloudy 58 14.4 47 8.3 67 67 SSW 6 9 29.94 1014 10 16.0934 0 0
4:54 pm 16:54 Sunny 60 15.6 48 8.9 65 65 SSW 7 11 29.93 1014 10 16.0934 0 0
5:54 pm 17:54 Sunny 62 16.7 48 8.9 60 60 SSW 10 17 29.93 1014 10 16.0934 0 0
6:54 pm 18:54 Sunny 57 13.9 48 8.9 72 72 S 7 11 29.91 1013 10 16.0934 0 0
7:54 pm 19:54 Mostly Clear 56 13.3 48 8.9 75 75 Calm 29.94 1014 10 16.0934 0 0
8:54 pm 20:54 Clear 55 12.8 47 8.3 74 74 SSE 5 7 29.97 1015 10 16.0934 0 0
9:54 pm 21:54 Clear 54 12.2 45 7.2 72 72 Calm 29.99 1016 10 16.0934 0 0
10:54 pm 22:54 Clear 48 8.9 40 4.4 74 74 NNW 6 9 30.03 1017 10 16.0934 0 0
11:54 pm 23:54 Mostly Clear 53 11.7 38 3.3 57 57 W 5 7 30.02 1017 10 16.0934 0 0

Powered by AerisWeather